Terug naar catalogus

STARLINK-11145

ActiefCommunicatieVLEO
NORAD 59945·PAYLOAD·🇺🇸 United States

Gelanceerd Jun 5, 2024 vanaf Cape Canaveral Space Force Station

Loading…

Volgende Passages (komende 24 uur)

TLE

VersSource: CelesTrak SupGP

Epoch: Sep 14, 2026, 20:34 UTC

1 59945C 24107A   26257.85743056  .00069014  00000+0  56855-3 0  2574
2 59945  53.1576  39.0481 0001144  69.5510 256.2012 15.69672494    14

Volg STARLINK-11145 in realtime met AllMySat

Download on the App Store